Weather reports worldwide

Advertisment
Leconfield, United Kingdom (3382): temperature & dewpoint: 22.05.2017 19:00:00 - 28.05.2017 19:00:00 (BST)Leconfield, United Kingdom (3382): temperature 5cm: 22.05.2017 19:00:00 - 28.05.2017 19:00:00 (BST)Leconfield, United Kingdom (3382): temperature -20cm & temperature -100cm: 22.05.2017 19:00:00 - 28.05.2017 19:00:00 (BST)Leconfield, United Kingdom (3382): wind speed & gusts: 22.05.2017 19:00:00 - 28.05.2017 19:00:00 (BST)Leconfield, United Kingdom (3382): wind direction: 22.05.2017 19:00:00 - 28.05.2017 19:00:00 (BST)Leconfield, United Kingdom (3382): reduced air pressure: 22.05.2017 19:00:00 - 28.05.2017 19:00:00 (BST)Leconfield, United Kingdom (3382): visibility: 22.05.2017 19:00:00 - 28.05.2017 19:00:00 (BST)Leconfield, United Kingdom (3382): sunshine duration: 22.05.2017 19:00:00 - 28.05.2017 19:00:00 (BST)Leconfield, United Kingdom (3382): precipitation: 22.05.2017 19:00:00 - 28.05.2017 19:00:00 (BST)
Date & Time tt [°C] td [°C] tt 5cm [°C] tt -20cm [°C] tt -100cm [°C] ff [km/h] ff [kn] fx [km/h] fx [kn] dd ppp [hPa] vv [km] sd [min] rr [mm]
28.05.2017 19:00:00 17,3 12,7 - - - 15 8 - - ENE 1017,3 10 12 -
28.05.2017 18:00:00 18,3 13,3 - - - 15 8 - - ENE 1017,1 10 0 0,0
28.05.2017 17:00:00 18,3 13,6 - - - 16 9 - - ENE 1016,9 10 18 0,0
28.05.2017 16:00:00 20,0 13,2 - - - 11 6 - - WSW 1017,2 10 30 0,0
28.05.2017 15:00:00 19,8 13,6 - - - 15 8 - - W 1017,3 10 30 0,0
28.05.2017 14:00:00 20,1 13,6 - - - 21 11 - - WNW 1016,7 10 54 0,0
28.05.2017 13:00:00 19,3 12,2 - - - 24 13 - - W 1016,5 10 60 0,0
28.05.2017 12:00:00 19,0 12,7 - - - 21 11 - - W 1016,5 10 54 0,0
28.05.2017 11:00:00 18,3 12,5 - - - 26 14 - - W 1016,3 10 60 0,0
28.05.2017 10:00:00 17,5 12,8 - 16,2 12,7 24 13 - - W 1016,1 10 54 0,0
28.05.2017 09:00:00 16,6 12,7 - - - 24 13 46 25 W 1015,4 10 54 0,0
28.05.2017 08:00:00 16,2 12,7 - - - 34 18 48 26 W 1014,7 10 60 0,0
28.05.2017 07:00:00 15,8 12,3 - - - 26 14 - - W 1014,6 10 36 0,0
28.05.2017 06:00:00 15,0 12,5 - - - 16 9 - - WSW 1014,0 10 0 0,0
28.05.2017 05:00:00 15,3 12,6 - - - 22 12 - - WSW 1013,6 10 0 0,0
28.05.2017 04:00:00 15,7 12,5 - - - 16 9 - - WSW 1013,0 10 0 0,0
28.05.2017 03:00:00 16,2 12,6 - - - 15 8 - - WSW 1012,8 10 0 0,0
28.05.2017 02:00:00 16,3 12,6 - - - 16 9 - - WSW 1012,5 10 0 0,0
28.05.2017 01:00:00 16,5 12,8 - - - 18 10 - - WSW 1012,2 10 - 0,0
28.05.2017 00:00:00 16,5 12,8 - - - 21 11 - - SW 1011,8 10 0 0,0
27.05.2017 23:00:00 16,7 12,7 - - - 26 14 - - SSW 1011,4 10 0 0,0
27.05.2017 22:00:00 17,2 12,8 - - - 24 13 - - SW 1011,3 10 0 0,0
27.05.2017 21:00:00 17,8 13,1 - - - 22 12 - - SSW 1010,7 10 0 0,0
27.05.2017 20:00:00 18,0 13,5 - - - 26 14 46 25 SSW 1010,4 10 0 0,0
27.05.2017 19:00:00 18,4 13,7 - - - 28 15 50 27 SSW 1009,7 10 0 0,0
27.05.2017 18:00:00 18,7 13,7 - - - 28 15 55 30 SW 1009,4 10 0 0,0
27.05.2017 17:00:00 20,8 13,5 - - - 31 17 61 33 SSW 1008,8 10 54 0,0
27.05.2017 16:00:00 23,9 16,4 - - - 28 15 52 28 SSW 1007,8 10 18 0,0
27.05.2017 15:00:00 24,3 16,4 - - - 22 12 - - SSW 1008,1 10 42 0,0
27.05.2017 14:00:00 23,7 16,1 - - - 22 12 - - SSE 1008,7 10 12 0,0
27.05.2017 13:00:00 22,1 16,2 - - - 22 12 - - ESE 1009,8 10 0 0,0
27.05.2017 12:00:00 24,3 16,4 - - - 16 9 - - ESE 1010,0 10 54 0,0
27.05.2017 11:00:00 23,7 15,9 - - - 11 6 - - ESE 1010,4 10 60 0,0
27.05.2017 10:00:00 21,5 16,6 - 15,9 12,5 9 5 - - E 1011,0 10 60 0,0
27.05.2017 09:00:00 19,0 15,4 - - - 5 3 - - ESE 1011,8 10 60 0,0
27.05.2017 08:00:00 16,8 14,4 - - - 4 2 - - ESE 1012,6 10 60 0,0
27.05.2017 07:00:00 14,3 13,7 - - - 4 2 - - ENE 1013,0 9 60 0,0
27.05.2017 06:00:00 10,7 10,5 - - - 4 2 - - ENE 1013,3 6 24 0,0
27.05.2017 05:00:00 10,0 9,6 - - - 5 3 - - ENE 1013,2 3,9 0 0,0
27.05.2017 04:00:00 10,3 9,9 - - - 5 3 - - ENE 1014,0 5 0 0,0
27.05.2017 03:00:00 10,9 10,4 - - - 5 3 - - ENE 1015,0 6 0 0,0
27.05.2017 02:00:00 11,2 10,6 - - - 8 4 - - E 1015,5 5 0 0,0
27.05.2017 01:00:00 11,5 10,7 - - - 5 3 - - ESE 1016,0 5 - 0,0
27.05.2017 00:00:00 12,6 11,6 - - - 5 3 - - ESE 1016,4 7 0 0,0
26.05.2017 23:00:00 13,4 12,1 - - - 9 5 - - ESE 1016,5 8 0 0,0
26.05.2017 22:00:00 14,4 12,2 - - - 11 6 - - SE 1016,9 10 0 0,0
26.05.2017 21:00:00 15,9 12,7 - - - 13 7 - - ESE 1016,8 10 54 0,0
26.05.2017 20:00:00 17,9 12,7 - - - 15 8 - - ESE 1017,1 10 60 0,0
26.05.2017 19:00:00 19,3 12,7 - - - 18 10 - - ESE 1017,2 10 60 0,0
26.05.2017 18:00:00 21,2 13,9 - - - 21 11 - - ESE 1017,3 10 60 0,0
26.05.2017 17:00:00 22,5 14,9 - - - 21 11 - - ESE 1017,8 10 60 0,0
26.05.2017 16:00:00 22,8 15,3 - - - 24 13 - - ESE 1018,2 10 60 0,0
26.05.2017 15:00:00 23,3 15,2 - - - 22 12 - - ESE 1018,5 10 60 0,0
26.05.2017 14:00:00 23,8 16,0 - - - 18 10 - - ESE 1019,0 10 60 0,0
26.05.2017 13:00:00 23,5 16,3 - - - 15 8 - - ESE 1019,5 10 60 0,0
26.05.2017 12:00:00 22,9 15,9 - - - 11 6 - - SE 1020,0 10 60 0,0
26.05.2017 11:00:00 21,4 14,9 - - - 13 7 - - SE 1020,4 10 60 0,0
26.05.2017 10:00:00 20,4 13,9 20,5 15,7 12,2 11 6 - - ESE 1021,0 10 60 0,0
26.05.2017 09:00:00 18,3 14,1 - - - 9 5 - - ESE 1021,4 10 60 0,0
26.05.2017 08:00:00 15,7 13,0 - - - 8 4 - - ESE 1021,6 10 60 0,0
26.05.2017 07:00:00 13,0 12,5 - - - 5 3 - - ESE 1021,6 10 54 0,0
26.05.2017 06:00:00 9,9 9,8 - - - 0 0 - - N 1021,5 0,4 0 0,0
26.05.2017 05:00:00 9,4 9,0 - - - 2 1 - - E 1021,6 2,9 0 0,0
26.05.2017 04:00:00 10,0 9,5 - - - 2 1 - - E 1021,9 2,3 0 0,0
26.05.2017 03:00:00 10,5 9,9 - - - 0 0 - - N 1021,9 2,3 0 0,0
26.05.2017 02:00:00 11,4 10,6 - - - 4 2 - - E 1022,0 3,4 0 0,0
26.05.2017 01:00:00 11,8 11,2 - - - 5 3 - - ENE 1022,2 4,5 - 0,0
26.05.2017 00:00:00 11,9 11,0 - - - 2 1 - - E 1022,2 5 0 0,0
25.05.2017 23:00:00 13,1 11,9 - - - 5 3 - - E 1022,3 6 0 0,0
25.05.2017 22:00:00 14,9 13,2 - - - 8 4 - - E 1022,6 6 0 0,0
25.05.2017 21:00:00 16,9 13,8 - - - 8 4 - - E 1022,3 10 36 0,0
25.05.2017 20:00:00 18,9 14,3 - - - 15 8 - - ESE 1022,2 10 60 0,0
25.05.2017 19:00:00 20,6 15,7 - - - 13 7 - - E 1022,4 10 60 0,0
25.05.2017 18:00:00 20,9 16,0 - - - 16 9 - - E 1022,6 10 60 0,0
25.05.2017 17:00:00 21,8 16,3 - - - 16 9 - - E 1022,9 10 60 0,0
25.05.2017 16:00:00 22,3 17,1 - - - 15 8 - - E 1023,2 10 60 0,0
25.05.2017 15:00:00 22,3 16,5 - - - 15 8 - - E 1023,5 12 60 0,0
25.05.2017 14:00:00 22,7 16,2 - - - 11 6 - - E 1023,8 10 60 0,0
25.05.2017 13:00:00 22,6 15,4 - - - 8 4 - - E 1024,1 10 60 0,0
25.05.2017 12:00:00 22,6 15,8 - - - 5 3 - - E 1024,4 10 54 0,0
25.05.2017 11:00:00 21,1 16,0 - - - 5 3 - - ENE 1024,8 10 54 0,0
25.05.2017 10:00:00 19,7 15,5 - 15,0 11,9 5 3 - - E 1024,9 10 60 0,0
25.05.2017 09:00:00 18,2 15,7 - - - 5 3 - - E 1025,0 10 60 0,0
25.05.2017 08:00:00 16,2 16,0 - - - 2 1 - - N 1024,9 8 60 0,0
25.05.2017 07:00:00 11,6 11,6 - - - 0 0 - - N 1024,9 3,6 6 0,0
25.05.2017 06:00:00 9,3 9,2 - - - 2 1 - - NNW 1024,6 0,1 0 0,0
25.05.2017 05:00:00 9,4 9,2 - - - 0 0 - - N 1024,3 2,7 0 0,0
25.05.2017 04:00:00 9,7 9,4 - - - 2 1 - - NNW 1024,3 2,9 0 0,0
25.05.2017 03:00:00 10,3 10,0 - - - 0 0 - - N 1024,6 3,3 0 0,0
25.05.2017 02:00:00 10,8 10,3 - - - 0 0 - - N 1024,6 1,3 0 0,0
25.05.2017 01:00:00 11,6 11,0 - - - 2 1 - - NNW 1024,9 4,6 - 0,0
25.05.2017 00:00:00 12,0 10,9 - - - 0 0 - - N 1025,0 4,2 0 0,0
24.05.2017 23:00:00 14,2 12,7 - - - 5 3 - - NNW 1025,0 9 0 0,0
24.05.2017 22:00:00 14,9 13,2 - - - 8 4 - - N 1025,0 8 0 0,0
24.05.2017 21:00:00 17,2 14,4 - - - 8 4 - - N 1024,7 8 36 0,0
24.05.2017 20:00:00 20,9 15,2 - - - 8 4 - - NW 1024,3 10 60 0,0
24.05.2017 19:00:00 22,4 14,7 - - - 16 9 - - W 1024,2 10 60 0,0
24.05.2017 18:00:00 23,3 14,7 - - - 15 8 - - W 1024,0 10 60 0,0
24.05.2017 17:00:00 23,7 14,7 - - - 15 8 - - W 1024,2 10 54 0,0
24.05.2017 16:00:00 23,2 14,6 - - - 16 9 - - W 1024,3 10 54 0,0
24.05.2017 15:00:00 23,0 14,9 - - - 13 7 - - W 1024,6 10 54 0,0
24.05.2017 14:00:00 22,4 14,7 - - - 16 9 - - W 1024,5 10 48 0,0
24.05.2017 13:00:00 22,1 14,7 - - - 16 9 - - W 1024,6 10 48 0,0
24.05.2017 12:00:00 20,8 13,6 - - - 15 8 - - W 1024,6 10 54 0,0
24.05.2017 11:00:00 19,9 13,7 - - - 15 8 - - W 1024,7 10 54 0,0
24.05.2017 10:00:00 18,6 14,2 18,8 14,2 11,7 11 6 - - W 1024,7 10 42 0,0
24.05.2017 09:00:00 17,9 14,4 - - - 18 10 - - W 1024,5 10 60 0,0
24.05.2017 08:00:00 16,7 13,7 - - - 18 10 - - W 1024,0 10 60 0,0
24.05.2017 07:00:00 15,3 12,8 - - - 18 10 - - W 1023,6 10 48 0,0
24.05.2017 06:00:00 14,7 12,4 - - - 21 11 - - W 1022,9 10 0 0,0
24.05.2017 05:00:00 14,8 12,1 - - - 22 12 - - W 1022,6 10 0 0,0
24.05.2017 04:00:00 13,0 10,7 - - - 8 4 - - W 1022,6 10 0 0,0
24.05.2017 03:00:00 14,3 11,2 - - - 11 6 - - W 1022,6 10 0 0,0
24.05.2017 02:00:00 14,4 10,8 - - - 15 8 - - W 1022,6 10 0 0,0
24.05.2017 01:00:00 14,8 10,3 - - - 15 8 - - W 1022,5 10 - 0,0
24.05.2017 00:00:00 14,6 9,0 - - - 13 7 - - W 1022,4 10 0 0,0
23.05.2017 23:00:00 14,5 6,9 - - - 15 8 - - W 1022,1 10 0 0,0
23.05.2017 22:00:00 15,3 7,2 - - - 9 5 - - W 1022,1 10 0 0,0
23.05.2017 21:00:00 17,3 6,4 - - - 15 8 - - W 1021,6 10 12 0,0
23.05.2017 20:00:00 18,7 8,2 - - - 13 7 - - W 1020,6 10 36 0,0
23.05.2017 19:00:00 20,0 9,7 - - - 16 9 - - W 1020,2 10 60 0,0
23.05.2017 18:00:00 20,8 9,9 - - - 16 9 - - W 1020,0 10 60 0,0
23.05.2017 17:00:00 20,8 9,6 - - - 15 8 - - W 1019,7 10 60 0,0
23.05.2017 16:00:00 20,6 9,6 - - - 16 9 - - WSW 1019,5 10 54 0,0
23.05.2017 15:00:00 20,2 8,8 - - - 16 9 - - W 1019,6 10 48 0,0
23.05.2017 14:00:00 19,5 8,5 - - - 16 9 - - W 1019,5 10 60 0,0
23.05.2017 13:00:00 19,3 10,1 - - - 21 11 - - W 1019,4 10 54 0,0
23.05.2017 12:00:00 17,9 10,0 - - - 18 10 - - W 1019,3 10 24 0,0
23.05.2017 11:00:00 17,3 9,6 - - - 16 9 - - W 1018,9 10 30 0,0
23.05.2017 10:00:00 16,4 9,4 - 13,7 11,5 15 8 - - WNW 1018,3 10 54 0,0
23.05.2017 09:00:00 15,3 10,5 - - - 13 7 - - WNW 1017,8 10 60 0,0
23.05.2017 08:00:00 13,8 10,4 - - - 11 6 - - W 1017,4 10 60 0,0
23.05.2017 07:00:00 12,9 10,6 - - - 13 7 - - W 1016,7 10 60 0,0
23.05.2017 06:00:00 11,4 9,8 - - - 13 7 - - W 1016,1 10 24 0,0
23.05.2017 05:00:00 11,8 9,8 - - - 18 10 - - W 1015,4 10 0 0,0
23.05.2017 04:00:00 11,6 9,7 - - - 15 8 - - W 1014,8 10 0 0,0
23.05.2017 03:00:00 11,9 9,7 - - - 15 8 - - W 1014,7 10 0 0,0
23.05.2017 02:00:00 12,8 9,9 - - - 15 8 - - W 1013,8 10 0 0,0
23.05.2017 01:00:00 13,3 10,0 - - - 21 11 - - W 1013,4 10 - 0,0
23.05.2017 00:00:00 15,0 10,9 - - - 21 11 - - W 1013,0 10 0 0,0
22.05.2017 23:00:00 15,9 12,0 - - - 9 5 - - WNW 1012,6 10 0 0,0
22.05.2017 22:00:00 15,8 12,2 - - - 8 4 - - S 1011,8 10 0 0,0
22.05.2017 21:00:00 15,8 12,4 - - - 9 5 - - SE 1011,7 10 18 0,0
22.05.2017 20:00:00 18,0 13,5 - - - 11 6 - - ESE 1011,8 10 54 0,0
22.05.2017 19:00:00 19,3 13,6 - - - 8 4 - - SE 1012,1 10 54 0,0

tt = temperature
td = dewpoint
tt 5cm = temperature 5cm
tt -20cm = temperature -20cm
tt -100cm = temperature -100cm
ff = wind speed
fx = gusts
dd = wind direction
ppp = reduced air pressure
vv = visibility
sd = sunshine duration
rr = precipitation

Next stations